This is the latest recevied weather packets stored in our database for station/object KD9ZDW. If no packets are shown the sender has not sent any weather packets the latest 10 day(s).
| Time | Temp. | Humidity | Pressure | Rain* | Wind** | Luminosity | Snow |
|---|---|---|---|---|---|---|---|
| 1777740351 | 7.78° C | 51% | 1021.2 hPa | 0 mm | - | 224 W/m² | - |
| 1777740049 | 7.78° C | 48% | 1021.2 hPa | 0 mm | - | 267 W/m² | - |
| 1777739745 | 6.67° C | 54% | 1021.3 hPa | 0 mm | - | 197 W/m² | - |
| 1777739442 | 6.67° C | 52% | 1021.1 hPa | 0 mm | - | 154 W/m² | - |
| 1777739139 | 7.22° C | 52% | 1021.1 hPa | 0 mm | - | 125 W/m² | - |
| 1777738836 | 7.22° C | 51% | 1021.1 hPa | 0 mm | - | 180 W/m² | - |
| 1777738532 | 6.67° C | 53% | 1021.1 hPa | 0 mm | - | 241 W/m² | - |
| 1777738230 | 7.22° C | 53% | 1021.4 hPa | 0 mm | - | 196 W/m² | - |
| 1777737928 | 7.78° C | 52% | 1021.5 hPa | 0 mm | - | 196 W/m² | - |
| 1777737626 | 7.22° C | 52% | 1021.4 hPa | 0 mm | - | 310 W/m² | - |
| 1777737325 | 6.67° C | 53% | 1021.5 hPa | 0 mm | - | 257 W/m² | - |
| 1777737021 | 6.67° C | 51% | 1021.3 hPa | 0 mm | - | 225 W/m² | - |
| 1777736717 | 7.22° C | 50% | 1021.4 hPa | 0 mm | - | 195 W/m² | - |
| 1777736078 | 7.22° C | 54% | 1021.2 hPa | 0 mm | - | 240 W/m² | - |
| 1777735774 | 7.22° C | 53% | 1021.2 hPa | 0 mm | - | 126 W/m² | - |
| 1777735472 | 6.67° C | 53% | 1021.4 hPa | 0 mm | - | 331 W/m² | - |
| 1777735170 | 6.11° C | 52% | 1021.6 hPa | 0 mm | - | 459 W/m² | - |
| 1777734866 | 6.67° C | 55% | 1021.4 hPa | 0 mm | - | 340 W/m² | - |
| 1777734564 | 6.11° C | 56% | 1021.4 hPa | 0 mm | - | 95 W/m² | - |
| 1777734260 | 6.11° C | 61% | 1021.3 hPa | 0 mm | - | 348 W/m² | - |
| 1777733956 | 6.67° C | 57% | 1021.3 hPa | 0 mm | - | 159 W/m² | - |
| 1777733653 | 6.11° C | 56% | 1021.3 hPa | 0 mm | - | 341 W/m² | - |
| 1777733349 | 6.11° C | 56% | 1021.4 hPa | 0 mm | - | 139 W/m² | - |
| 1777733047 | 6.11° C | 54% | 1021.2 hPa | 0 mm | - | 149 W/m² | - |
| 1777732743 | 6.11° C | 55% | 1021.2 hPa | 0 mm | - | 220 W/m² | - |
* Rain latest hour (hover to see other rain measurements)
** Current wind speed in m/s (hover to see current wind gust speed)